Corpus Christi, TX

8:57 PM CST on February 07, 2016 (GMT -0600)
Corpus Christi International

Weather History for KCRP - January, 2013

Change the Weather History Date:

Saturday, January 5, 2013

  Actual Average Record
Temperature  
Mean Temperature 49 °F 57 °F  
Max Temperature 51 °F 66 °F 87 °F (1989)
Min Temperature 46 °F 47 °F 28 °F (1969)
Degree Days  
Heating Degree Days 16 9  
Month to date heating degree days 70 45  
Since 1 July heating degree days 245 396  
Cooling Degree Days 0 1  
Month to date cooling degree days 0 5  
Year to date cooling degree days 0 5  
Moisture  
Dew Point 42 °F    
Average Humidity 74    
Maximum Humidity 86    
Minimum Humidity 61    
Precipitation  
Precipitation 0.03 in 0.05 in 4.47 in (1958)
Month to date precipitation 0.27 0.27  
Year to date precipitation 0.27 0.27  
Snow  
Snow 0.00 in - - ()
Month to date snowfall 0.0  
Since 1 July snowfall 0.0  
Snow Depth 0.00 in    
Sea Level Pressure  
Sea Level Pressure 30.31 in    
Wind  
Wind Speed 11 mph (North)    
Max Wind Speed 21 mph    
Max Gust Speed 26 mph    
Visibility 10 miles    
Events Rain    
T = Trace of Precipitation, MM = Missing Value Source: NWS Daily Summary

Daily Weather History Graph

Daily Weather History Graph

Search for Another Location

Airport or City:

Trip Planner

Search our weather history database for the weather conditions in past years. The results will help you decide how hot, cold, wet, or windy it might be!

Date:

Astronomy

Jan. 05, 2013 Rise Set
Actual Time 7:21 AM CST 5:49 PM CST
Civil Twilight 6:56 AM CST 6:15 PM CST
Nautical Twilight 6:27 AM CST 6:44 PM CST
Astronomical Twilight 5:58 AM CST 7:12 PM CST
Moon 12:47 AM CST (1/5) 12:25 PM CST (1/5)
Length of Visible Light 11h 18m
Length of Day
10h 27m
Last Quarter, 44% of the Moon is Illuminated
Jan 5
Last Quarter
Jan 11
New
Jan 18
First Quarter
Jan 26
Full
Feb 3
Last Quarter

Hourly Weather History & Observations

Time (CST) Temp. Windchill Dew Point Humidity Pressure Visibility Wind Dir Wind Speed Gust Speed Precip Events Conditions
12:10 AM 48.2 °F - 37.4 °F 66% 30.35 in 10.0 mi North 13.8 mph - N/A   Overcast
12:51 AM 48.9 °F - 37.0 °F 64% 30.34 in 10.0 mi North 16.1 mph - N/A   Overcast
1:51 AM 48.0 °F - 37.0 °F 66% 30.33 in 10.0 mi North 17.3 mph - N/A   Overcast
2:51 AM 48.0 °F - 37.0 °F 66% 30.32 in 10.0 mi North 15.0 mph 26.5 mph N/A   Overcast
3:51 AM 48.2 °F - 37.4 °F 66% 30.32 in 10.0 mi North 18.4 mph - N/A   Overcast
4:51 AM 46.9 °F - 39.0 °F 74% 30.32 in 10.0 mi North 19.6 mph 25.3 mph N/A   Overcast
5:51 AM 46.4 °F 40.7 °F 39.2 °F 76% 30.32 in 10.0 mi North 12.7 mph - N/A   Overcast
6:51 AM 46.9 °F - 39.0 °F 74% 30.33 in 10.0 mi North 13.8 mph - N/A   Overcast
7:51 AM 46.0 °F 39.9 °F 39.0 °F 76% 30.35 in 10.0 mi North 13.8 mph - N/A   Overcast
8:30 AM 46.4 °F 41.1 °F 39.2 °F 76% 30.35 in 10.0 mi North 11.5 mph - 0.00 in   Overcast
8:51 AM 46.4 °F 40.4 °F 39.2 °F 76% 30.35 in 10.0 mi North 13.8 mph - N/A   Overcast
8:56 AM 46.4 °F 40.4 °F 39.2 °F 76% 30.36 in 10.0 mi North 13.8 mph - N/A   Overcast
9:51 AM 46.0 °F 39.9 °F 41.0 °F 83% 30.36 in 10.0 mi North 13.8 mph - 0.01 in Rain Light Rain
10:30 AM 46.4 °F 41.1 °F 42.8 °F 87% 30.36 in 10.0 mi NNW 11.5 mph - 0.01 in Rain Light Rain
10:40 AM 46.4 °F 41.1 °F 42.8 °F 87% 30.36 in 10.0 mi North 11.5 mph - 0.01 in Rain Light Rain
10:51 AM 46.9 °F - 42.1 °F 83% 30.36 in 7.0 mi North 12.7 mph - 0.01 in Rain Light Rain
11:12 AM 46.4 °F 40.7 °F 42.8 °F 87% 30.35 in 10.0 mi North 12.7 mph - 0.01 in Rain Light Rain
11:51 AM 46.9 °F - 43.0 °F 86% 30.34 in 9.0 mi North 9.2 mph - 0.01 in Rain Light Rain
12:51 PM 48.9 °F - 44.1 °F 83% 30.30 in 10.0 mi North 8.1 mph - 0.00 in   Overcast
1:13 PM 48.2 °F - 44.6 °F 87% 30.29 in 6.0 mi North 10.4 mph - 0.00 in Rain Light Rain
1:37 PM 48.2 °F - 44.6 °F 87% 30.28 in 7.0 mi North 10.4 mph - 0.00 in Rain Light Rain
1:51 PM 50.0 °F - 45.0 °F 83% 30.28 in 10.0 mi North 10.4 mph - 0.00 in   Overcast
2:12 PM 50.0 °F - 44.6 °F 82% 30.27 in 10.0 mi North 11.5 mph - 0.00 in Rain Light Rain
2:51 PM 50.0 °F - 45.0 °F 83% 30.27 in 10.0 mi NNE 9.2 mph - 0.00 in   Overcast
3:51 PM 51.1 °F - 45.0 °F 80% 30.27 in 10.0 mi North 9.2 mph - 0.00 in   Overcast
4:51 PM 51.1 °F - 45.0 °F 80% 30.26 in 10.0 mi North 9.2 mph - N/A   Overcast
5:43 PM 51.8 °F - 44.6 °F 76% 30.26 in 10.0 mi North 9.2 mph - N/A   Overcast
5:51 PM 50.0 °F - 45.0 °F 83% 30.26 in 10.0 mi NNE 9.2 mph - N/A   Overcast
6:51 PM 50.0 °F - 45.0 °F 83% 30.27 in 10.0 mi North 6.9 mph - N/A   Overcast
7:51 PM 50.0 °F - 45.0 °F 83% 30.27 in 10.0 mi North 8.1 mph - N/A   Overcast
8:51 PM 50.0 °F - 45.0 °F 83% 30.28 in 10.0 mi North 8.1 mph - N/A   Overcast
9:51 PM 51.1 °F - 45.0 °F 80% 30.30 in 10.0 mi Calm Calm - N/A   Overcast
10:51 PM 51.8 °F - 44.6 °F 76% 30.30 in 10.0 mi North 8.1 mph - N/A   Overcast
11:51 PM 51.1 °F - 45.0 °F 80% 30.29 in 10.0 mi NNW 5.8 mph - N/A   Overcast